Location: Francilly
(49.8528°N, 3.2249°E)
Time: 15:03:03
(UTC+00:00)

Daily predictions for brighter satellites

Satellite Brightness Start Highest point End
(mag) Time Altitude Azimuth Time Altitude Azimuth Time Altitude Azimuth
ATLAS 2AS CENTAUR R/B 3.0 20:29:49 10° NW 20:36:42 64° NE 20:43:18 10° ESE
Meteor 1-22 Rocket 4.4 20:32:01 10° N 20:37:40 72° ENE 20:43:31 10° SSE
BREEZE-M DEB (TANK) 3.6 20:36:39 10° SW 20:40:11 50° SE 20:51:34 10° ENE
Meteor 2-10 Rocket 3.9 20:36:09 10° N 20:41:43 60° ENE 20:47:01 10° SSE
COSMOS 2406 3.9 20:36:06 10° SW 20:41:48 62° WNW 20:47:30 10° NNE
Cosmos 1674 4.1 20:40:02 10° SW 20:43:15 36° WNW 20:46:30 10° N
ARGOS Delta rocket 3.9 20:39:42 10° S 20:44:08 69° W 20:48:32 10° NNW
Cosmos 1733 Rocket 3.7 20:44:22 10° N 20:48:34 42° ENE 20:52:46 10° SE
SL-4 R/B 2.3 20:45:03 10° W 20:48:51 67° N 20:52:54 10° E
Cosmos 2278 4.2 20:43:47 10° NW 20:49:24 58° WSW 20:54:57 10° S
Cosmos 1300 2.8 20:50:17 10° N 20:53:47 51° ENE 20:57:15 10° SSE
S3M 4.1 20:47:38 10° N 20:54:03 90° NE 21:00:22 10° S
Ariane Rocket 3.1 20:49:34 10° SSE 20:54:38 75° ENE 20:59:44 10° NNW
USA 281 4.4 20:49:12 10° ESE 20:54:53 33° NE 21:00:36 10° NNW
Timation 1 Rocket 4.4 20:50:41 10° SSW 20:56:31 61° ESE 21:02:24 10° NE
SL-27 R/B 3.0 20:54:42 10° SSE 20:57:03 25° ESE 20:59:26 10° NE
Okean-O 4.2 20:53:49 10° SSW 20:57:47 33° W 21:01:47 10° NNW
Cosmos 1441 Rocket 4.4 20:55:16 10° NNW 20:58:38 38° W 21:02:01 10° SSW
Cosmos 1400 Rocket 2.7 20:56:58 10° S 21:00:51 80° E 21:04:41 10° NNE
Cosmos 2219 Rocket 2.9 20:55:49 10° NNW 21:01:16 45° NE 21:06:43 10° SE
Meteor 1-13 Rocket 4.5 20:55:45 10° SSW 21:01:32 78° WNW 21:07:13 10° N
COSMOS 2428 4.2 20:57:51 10° NNW 21:02:42 28° NE 21:07:33 10° ESE
BREEZE-M DEB (TANK) 2.0 21:02:03 10° W 21:04:02 48° SSW 21:06:48 10° ESE
Cosmos 1356 Rocket 3.7 21:00:15 10° S 21:04:17 49° E 21:08:22 10° NNE
Cosmos 2266 Rocket 4.1 20:59:39 10° S 21:06:00 90° NNW 21:12:27 10° N
USA 245 3.8 21:02:53 10° S 21:06:26 61° W 21:10:57 10° NNW
ATLAS CENTAUR R/B 1.3 21:03:33 10° SSW 21:06:52 42° ESE 21:10:17 10° NE
Cosmos 1850 Rocket 4.1 21:03:48 10° S 21:08:56 62° ESE 21:14:04 10° NNE
Cosmos 1655 Rocket 4.1 21:05:14 10° S 21:11:36 72° E 21:17:59 10° NNE
Meteor 1-4 Rocket 3.4 21:13:07 14° SE 21:14:59 24° E 21:17:29 10° NE
Cosmos 2228 Rocket 3.2 21:10:47 10° S 21:15:18 70° E 21:19:52 10° NNE
MOS 1 Rocket 3.8 21:10:52 10° S 21:16:16 77° WSW 21:21:33 10° NNW
Okean O Rocket 4.3 21:15:15 10° WSW 21:17:14 13° W 21:19:12 10° WNW
Cosmos 1953 3.4 21:14:37 10° N 21:18:01 29° ENE 21:20:51 13° SE
Cosmos 1315 Rocket 4.0 21:17:28 13° SE 21:20:14 27° E 21:23:39 10° NNE
Cosmos 968 Rocket 3.6 21:17:23 10° S 21:22:24 56° ESE 21:27:29 10° NNE
SPOT 3 Rocket 3.8 21:18:28 10° S 21:23:36 71° WSW 21:28:47 10° NNW
Spot 1 4.5 21:19:11 10° NNE 21:23:38 53° ESE 21:28:18 10° S
SeaSat 1 3.3 21:19:17 10° S 21:23:57 44° WSW 21:28:40 10° NW
Cosmos 2360 Rocket 2.3 21:20:47 10° NNW 21:26:29 74° WSW 21:31:30 13° SSE
Cosmos 1741 Rocket 4.0 21:24:08 10° SSW 21:29:25 84° ESE 21:34:46 10° NNE
Cosmos 1242 Rocket 4.0 21:29:30 13° ESE 21:30:14 14° E 21:31:43 10° ENE
BlueWalker 3 3.5 21:31:50 16° SE 21:31:54 16° SE 21:34:14 10° E
Cosmos 1814 Rocket 4.1 21:27:28 10° NNW 21:32:49 85° ENE 21:37:16 15° SSE
MetOp-A 4.1 21:28:25 13° SSE 21:33:02 79° ENE 21:38:18 10° NNW
Landsat 4 4.4 21:30:19 10° S 21:33:36 42° W 21:36:53 10° NNW
COSMOS 2455 4.4 21:35:30 13° SE 21:38:02 17° ESE 21:41:39 10° ENE
SL-16 R/B 3.5 21:33:08 10° NW 21:38:07 32° WSW 21:43:05 10° SSW
Landsat 5 3.4 21:36:15 10° NNE 21:40:16 73° ESE 21:44:11 11° S
USA 234 3.2 21:34:11 10° ENE 21:40:46 82° SE 21:47:19 10° SW
Cosmos 2333 Rocket 2.5 21:36:41 10° NW 21:42:23 62° WSW 21:47:09 15° S
SL-14 R/B 3.9 21:40:24 10° SSW 21:44:06 53° WNW 21:47:50 10° N
Cosmos 1703 Rocket 4.4 21:43:34 17° SSE 21:46:27 37° E 21:50:33 10° NNE
Cosmos 1862 Rocket 3.7 21:42:57 10° SSW 21:47:20 78° W 21:51:48 10° N
Cosmos 1346 Rocket 3.6 21:44:08 10° NNW 21:47:50 43° W 21:51:09 12° SSW
Okean 3 3.4 21:46:08 12° S 21:50:01 88° W 21:54:13 10° N
DNEPR-1 R/B 4.4 21:43:15 10° NW 21:50:06 81° SW 21:54:25 18° SSE
Cosmos 1455 2.1 21:49:29 10° N 21:52:57 60° ENE 21:55:03 22° SSE
Cosmos 1408 4.3 21:55:12 13° ESE 21:55:51 13° E 21:57:22 10° ENE
Cosmos 1833 4.2 21:51:29 10° SSW 21:57:07 86° ESE 22:02:47 10° NNE
EXPRESS MD2 1.8 21:55:28 10° W 21:57:54 88° N 21:59:45 13° E
CZ-4C R/B 3.4 21:58:28 14° ESE 21:59:30 15° ESE 22:02:27 10° ENE
RESURS DK-1 4.4 21:56:40 10° WNW 21:59:31 19° WSW 22:02:23 10° SSW
H-2A R/B 3.7 21:58:41 15° ESE 22:01:35 33° ENE 22:05:26 10° N
Cosmos 2237 Rocket 3.6 21:56:36 10° NNW 22:01:36 31° NE 22:06:33 10° ESE
Cosmos 1932 4.4 21:57:23 10° SSW 22:03:41 70° SE 22:09:56 10° NE
SJ 16-02 1.4 22:00:41 10° SSW 22:05:00 81° WNW 22:09:21 10° NNE
Cosmos 2322 3.8 21:59:41 10° NNW 22:05:24 75° ENE 22:09:35 19° SE
Terra 3.8 22:02:02 10° SW 22:05:43 22° W 22:09:24 10° NW
CZ-2C R/B 3.9 22:02:28 10° NNE 22:06:46 49° E 22:09:29 21° SSE
Aureole 3 4.2 22:07:01 10° SSW 22:10:56 57° WNW 22:15:54 10° N
Cosmos 2322 Rocket 3.8 22:15:48 10° NW 22:20:17 24° WSW 22:24:46 10° SSW
ARIANE 5 R/B 2.5 22:23:17 24° SSE 22:25:52 86° WSW 22:30:14 10° NNW
NOSS 5 (C) 4.1 22:23:25 10° NW 22:26:37 87° SW 22:27:59 31° SE
ATLAS 2AS CENTAUR R/B 3.5 22:21:11 10° NW 22:27:15 36° WSW 22:31:35 17° S
SL-4 R/B 1.9 22:23:49 10° WNW 22:27:47 88° NNE 22:31:56 10° ESE
Cosmos 2297 Rocket 3.4 22:27:17 19° SE 22:29:36 25° ESE 22:34:05 10° NE
Okean 1-7 3.7 22:30:05 14° SSW 22:33:42 51° WNW 22:37:56 10° N
USA 281 3.3 22:34:22 21° SSE 22:38:58 71° WSW 22:45:35 10° NNW
Cosmos 1745 Rocket 4.0 22:34:59 20° S 22:39:32 78° E 22:45:56 10° NNE
Cosmos 1908 Rocket 4.3 22:36:45 10° NNW 22:40:53 44° W 22:43:32 20° SSW
GP-B 3.3 22:36:41 10° N 22:41:06 68° W 22:43:51 22° SSW
Cosmos 1782 Rocket 3.5 22:39:31 10° NNW 22:43:52 77° W 22:46:09 27° S
Spot 4 3.9 22:41:21 25° SSE 22:44:09 75° ENE 22:48:59 10° NNW
ATLAS CENTAUR R/B 3.3 22:41:37 10° W 22:44:39 26° NW 22:47:48 10° NNE
Cosmos 2219 Rocket 3.2 22:39:58 10° NW 22:45:08 37° WSW 22:48:35 19° SSW
Nadezhda 1 Rocket 4.1 22:40:01 10° NNW 22:46:20 75° W 22:50:31 22° S
COSMOS 2428 2.8 22:41:47 10° NNW 22:47:28 69° WSW 22:50:54 24° SSE
Meteor 2-5 Rocket 4.4 22:46:15 23° SSE 22:49:36 45° E 22:55:07 10° NNE
BREEZE-M DEB (TANK) 2.7 22:48:11 10° WNW 22:51:59 46° N 22:54:01 10° ENE
Cosmos 1953 3.9 22:50:34 10° NNW 22:53:44 25° W 22:55:58 15° SW
Cosmos 2098 Rocket 4.4 22:48:03 10° N 22:54:36 59° ENE 22:58:50 22° SSE
Cosmos 1315 Rocket 4.5 22:52:48 10° SW 22:56:19 29° WNW 22:59:52 10° N
H-2A R/B 3.7 22:54:33 10° NE 22:57:41 20° E 22:59:07 17° ESE
PSLV R/B 4.1 22:55:23 10° N 22:59:22 66° WNW 23:01:43 23° SSW
Cosmos 1300 Rocket 3.7 22:56:46 10° NNW 23:01:01 61° W 23:03:09 28° SSW
Cosmos 1242 Rocket 3.7 23:00:39 18° WSW 23:02:01 26° WNW 23:04:25 10° NNW
Cosmos 304 Rocket 4.0 23:03:17 29° SSE 23:05:26 51° ESE 23:10:04 10° NNE
Cosmos 158 Rocket 4.4 23:02:19 10° NNW 23:07:29 54° WSW 23:10:13 26° S
Cosmos 2151 Rocket 4.3 23:04:56 10° N 23:09:10 44° ENE 23:11:26 24° SE
Cosmos 2360 Rocket 4.4 23:07:01 10° WNW 23:09:27 13° W 23:11:52 10° WSW
BlueWalker 3 1.7 23:06:00 11° SW 23:09:32 69° SSE 23:13:16 10° ENE
Cosmos 405 Rocket 3.0 23:06:52 10° N 23:10:35 56° ENE 23:12:07 31° SE
Okean 2 Rocket 3.7 23:11:24 10° N 23:15:44 48° ENE 23:18:04 25° SE
ALOS 2 2.6 23:14:27 31° S 23:16:31 77° WSW 23:20:56 10° NNW
Cosmos 1674 Rocket 4.3 23:20:04 27° SE 23:21:52 40° E 23:25:56 10° NNE
Cosmos 1378 Rocket 4.0 23:20:47 29° SSE 23:22:35 48° E 23:26:49 10° NNE
COSMOS 2455 2.8 23:18:35 19° SSW 23:23:03 81° SE 23:29:07 10° NE
USA 234 4.0 23:17:16 10° ENE 23:23:37 55° NNW 23:29:57 10° W
NOSS 0 Rocket 4.2 23:20:09 10° NW 23:26:13 55° WSW 23:29:40 26° S
CENTAUR R/B 3.4 23:24:42 22° SE 23:26:56 28° ESE 23:32:32 10° NE
Cosmos 1408 3.4 23:27:13 24° WSW 23:28:17 32° WNW 23:31:01 10° N
Cosmos 773 Rocket 4.1 23:24:21 10° NNW 23:29:27 63° WSW 23:32:01 29° S
Cosmos 1703 3.5 23:34:51 31° SW 23:36:23 56° WNW 23:40:01 10° N
H-2A R/B 3.8 23:34:40 22° SW 23:36:31 30° W 23:40:18 10° NW
Cosmos 2221 Rocket 4.0 23:34:53 30° SSE 23:36:48 52° E 23:41:07 10° NNE
Cosmos 1892 2.9 23:37:30 37° SE 23:38:28 49° E 23:41:53 10° NNE
Cosmos 1709 Rocket 4.4 23:34:37 20° SSW 23:39:08 60° WNW 23:45:26 10° N
SL-16 R/B 3.0 23:33:48 10° NNW 23:39:20 47° NE 23:44:44 10° SE
Cosmos 1174 4.0 23:34:31 10° NW 23:39:37 84° WSW 23:41:41 30° SSE
Sich 1 Rocket 3.5 23:36:57 10° N 23:41:22 83° E 23:43:22 32° SSE
SJ 16-02 4.1 23:41:59 10° WNW 23:44:07 13° NW 23:46:14 10° NNW
Cosmos 2237 Rocket 2.3 23:40:27 10° NW 23:46:02 60° WSW 23:48:59 28° S
Cosmos 1777 Rocket 4.0 23:43:34 27° SSW 23:46:33 84° ESE 23:51:51 10° NNE
CZ-4C R/B 1.9 23:43:30 20° SW 23:46:43 87° NW 23:52:35 10° NE
Cosmos 1503 Rocket 4.0 23:43:28 24° SSW 23:46:43 83° WNW 23:52:03 10° NNE
BREEZE-M DEB (TANK) 2.8 23:39:12 10° W 23:48:32 77° SSW 23:51:34 10° ESE
Cosmos 2227 Rocket 2.4 23:50:16 27° S 23:53:09 56° ESE 23:58:42 10° NE
GEOS 3 Rocket 4.2 23:49:52 10° NE 23:54:44 40° ESE 23:56:49 28° S
